When you browse on this site, cookies collect data to enhance your experience and personalize the content and advertising you see.
Visit our Privacy Policy to learn more. By continuing to use the site, you agree to this use of cookies and data.
  • In Hungary
  • List of Countries
  • For 7 days
  • Water Temperature
  • Satellite Maps
  • Weather Map
  • News
  • Weather Widgets
  • user-avatar
    Login

    Hourly Weather Aksakovo

    Today, 24 January, Thursday

    Time Temperature Precipitation Wind Pressure Humidity
    00:00 -26°C° 0 mm 2 mps 737 mmHg 99%
    01:00 -26°C° 0 mm 2 mps 737 mmHg 98%
    02:00 -26°C° 0 mm 2 mps 737 mmHg 98%
    03:00 -26°C° 0 mm 2 mps 738 mmHg 98%
    04:00 -26°C° 0 mm 2 mps 738 mmHg 99%
    05:00 -27°C° 0 mm 2 mps 738 mmHg 99%
    06:00 -27°C° 0 mm 2 mps 738 mmHg 99%
    07:00 -28°C° 0 mm 2 mps 738 mmHg 99%
    08:00 -27°C° 0 mm 2 mps 739 mmHg 99%
    09:00 -27°C° 0 mm 2 mps 739 mmHg 98%
    10:00 -27°C° 0 mm 2 mps 739 mmHg 98%
    11:00 -25°C° 0 mm 2 mps 739 mmHg 97%
    12:00 -25°C° 0 mm 3 mps 740 mmHg 97%
    13:00 -24°C° 0 mm 3 mps 740 mmHg 96%
    14:00 -24°C° 0 mm 3 mps 739 mmHg 96%
    15:00 -24°C° 0 mm 3 mps 739 mmHg 95%
    16:00 -24°C° 0 mm 3 mps 739 mmHg 95%
    17:00 -23°C° 0 mm 3 mps 738 mmHg 94%
    18:00 -24°C° 0 mm 4 mps 738 mmHg 93%
    19:00 -23°C° 0 mm 4 mps 737 mmHg 92%
    20:00 -22°C° 0.2 mm 5 mps 737 mmHg 92%
    21:00 -22°C° 0.2 mm 6 mps 736 mmHg 93%
    22:00 -23°C° 0.2 mm 7 mps 735 mmHg 94%
    23:00 -22°C° 0.6 mm 8 mps 734 mmHg 94%

    Tomorrow, 25 January, Friday

    Time Temperature Precipitation Wind Pressure Humidity
    00:00 -21°C° 0.6 mm 8 mps 733 mmHg 93%
    01:00 -20°C° 0.6 mm 9 mps 732 mmHg 93%
    02:00 -20°C° 0.6 mm 9 mps 731 mmHg 93%
    03:00 -19°C° 0.6 mm 9 mps 730 mmHg 93%
    04:00 -17°C° 0.6 mm 8 mps 729 mmHg 92%
    05:00 -17°C° 0.4 mm 8 mps 729 mmHg 92%
    06:00 -17°C° 0.4 mm 7 mps 728 mmHg 92%
    07:00 -17°C° 0.4 mm 7 mps 727 mmHg 92%
    08:00 -17°C° 0.2 mm 7 mps 727 mmHg 93%
    09:00 -16°C° 0.2 mm 6 mps 727 mmHg 93%
    10:00 -16°C° 0.2 mm 6 mps 727 mmHg 93%
    11:00 -16°C° 0.3 mm 6 mps 727 mmHg 93%
    12:00 -15°C° 0.3 mm 6 mps 727 mmHg 92%
    13:00 -15°C° 0.3 mm 6 mps 727 mmHg 92%
    14:00 -16°C° 0 mm 6 mps 727 mmHg 91%
    15:00 -16°C° 0 mm 6 mps 728 mmHg 90%
    16:00 -17°C° 0 mm 6 mps 729 mmHg 89%
    17:00 -19°C° 0 mm 5 mps 730 mmHg 91%
    18:00 -21°C° 0 mm 5 mps 731 mmHg 93%
    19:00 -24°C° 0 mm 5 mps 732 mmHg 95%
    20:00 -24°C° 0 mm 4 mps 732 mmHg 96%
    21:00 -26°C° 0 mm 4 mps 733 mmHg 97%
    22:00 -26°C° 0 mm 3 mps 734 mmHg 98%
    23:00 -27°C° 0 mm 3 mps 734 mmHg 98%

    Day after tomorrow, 26 January, Saturday

    Time Temperature Precipitation Wind Pressure Humidity
    00:00 -27°C° 0 mm 3 mps 735 mmHg 99%
    01:00 -27°C° 0 mm 2 mps 735 mmHg 99%
    02:00 -27°C° 0 mm 2 mps 736 mmHg 99%
    03:00 -27°C° 0 mm 2 mps 736 mmHg 99%
    04:00 -27°C° 0 mm 2 mps 737 mmHg 99%
    05:00 -27°C° 0 mm 2 mps 737 mmHg 99%
    06:00 -27°C° 0 mm 2 mps 737 mmHg 99%
    07:00 -25°C° 0 mm 1 mps 738 mmHg 99%
    08:00 -24°C° 0 mm 1 mps 738 mmHg 98%
    09:00 -23°C° 0 mm 1 mps 739 mmHg 97%
    10:00 -22°C° 0 mm 1 mps 739 mmHg 96%
    11:00 -21°C° 0 mm 1 mps 740 mmHg 93%
    12:00 -19°C° 0 mm 0 mps 740 mmHg 89%
    13:00 -17°C° 0 mm 0 mps 740 mmHg 86%
    14:00 -18°C° 0 mm 0 mps 740 mmHg 87%
    15:00 -19°C° 0 mm 0 mps 740 mmHg 87%
    16:00 -20°C° 0 mm 1 mps 741 mmHg 88%
    17:00 -20°C° 0 mm 1 mps 741 mmHg 87%
    18:00 -20°C° 0 mm 1 mps 741 mmHg 85%
    19:00 -20°C° 0 mm 1 mps 741 mmHg 84%
    20:00 -21°C° 0 mm 1 mps 741 mmHg 83%
    21:00 -21°C° 0 mm 1 mps 741 mmHg 82%
    22:00 -24°C° 0 mm 2 mps 741 mmHg 81%
    23:00 -24°C° 0 mm 2 mps 741 mmHg 81%

    27 January, Sunday

    Time Temperature Precipitation Wind Pressure Humidity
    00:00 -24°C° 0 mm 2 mps 740 mmHg 81%
    01:00 -24°C° 0 mm 2 mps 740 mmHg 81%
    02:00 -25°C° 0 mm 3 mps 740 mmHg 81%
    03:00 -25°C° 0 mm 3 mps 740 mmHg 81%
    04:00 -24°C° 0 mm 3 mps 740 mmHg 81%
    05:00 -24°C° 0 mm 3 mps 739 mmHg 80%
    06:00 -25°C° 0 mm 4 mps 739 mmHg 79%
    07:00 -24°C° 0 mm 4 mps 739 mmHg 79%
    08:00 -24°C° 0 mm 4 mps 739 mmHg 77%
    09:00 -24°C° 0 mm 5 mps 739 mmHg 76%
    10:00 -22°C° 0 mm 5 mps 739 mmHg 74%
    11:00 -21°C° 0 mm 5 mps 738 mmHg 73%
    12:00 -20°C° 0 mm 6 mps 738 mmHg 72%
    13:00 -18°C° 0 mm 6 mps 738 mmHg 71%
    14:00 -19°C° 0 mm 7 mps 737 mmHg 73%
    15:00 -18°C° 0 mm 7 mps 737 mmHg 75%
    16:00 -18°C° 0 mm 7 mps 737 mmHg 76%
    17:00 -18°C° 0 mm 7 mps 736 mmHg 77%
    18:00 -19°C° 0 mm 7 mps 736 mmHg 77%
    19:00 -19°C° 0 mm 7 mps 736 mmHg 77%
    20:00 -19°C° 0 mm 7 mps 736 mmHg 76%
    21:00 -18°C° 0 mm 6 mps 735 mmHg 76%
    22:00 -20°C° 0 mm 6 mps 735 mmHg 75%
    23:00 -20°C° 0 mm 6 mps 735 mmHg 75%

    28 January, Monday

    Time Temperature Precipitation Wind Pressure Humidity
    00:00 -20°C° 0 mm 6 mps 735 mmHg 75%
    01:00 -20°C° 0 mm 6 mps 734 mmHg 75%
    02:00 -20°C° 0 mm 6 mps 734 mmHg 75%
    03:00 -20°C° 0 mm 6 mps 734 mmHg 75%
    04:00 -20°C° 0 mm 6 mps 733 mmHg 75%
    05:00 -20°C° 0 mm 6 mps 733 mmHg 76%
    06:00 -20°C° 0 mm 6 mps 732 mmHg 76%
    07:00 -20°C° 0 mm 6 mps 732 mmHg 77%
    08:00 -20°C° 0 mm 6 mps 732 mmHg 77%
    09:00 -18°C° 0 mm 6 mps 731 mmHg 77%
    10:00 -18°C° 0 mm 6 mps 731 mmHg 77%
    11:00 -16°C° 0 mm 6 mps 731 mmHg 79%
    12:00 -15°C° 0 mm 6 mps 731 mmHg 80%
    13:00 -14°C° 0 mm 6 mps 730 mmHg 81%
    14:00 -12°C° 0.1 mm 6 mps 730 mmHg 84%
    15:00 -12°C° 0.1 mm 5 mps 729 mmHg 86%
    16:00 -11°C° 0.1 mm 5 mps 729 mmHg 88%
    17:00 -11°C° 0.2 mm 5 mps 729 mmHg 90%
    18:00 -12°C° 0.2 mm 5 mps 729 mmHg 91%
    19:00 -12°C° 0.2 mm 5 mps 729 mmHg 93%
    20:00 -11°C° 0.2 mm 4 mps 729 mmHg 93%
    21:00 -11°C° 0.2 mm 4 mps 729 mmHg 93%
    22:00 -12°C° 0.2 mm 4 mps 729 mmHg 94%
    23:00 -12°C° 0.2 mm 4 mps 729 mmHg 94%

    29 January, Tuesday

    Time Temperature Precipitation Wind Pressure Humidity
    00:00 -12°C° 0.2 mm 4 mps 729 mmHg 94%
    01:00 -12°C° 0.2 mm 4 mps 729 mmHg 95%
    02:00 -12°C° 0.1 mm 3 mps 729 mmHg 95%
    03:00 -13°C° 0.1 mm 3 mps 729 mmHg 95%
    04:00 -13°C° 0.1 mm 3 mps 728 mmHg 95%
    05:00 -14°C° 0 mm 3 mps 728 mmHg 96%
    06:00 -14°C° 0 mm 3 mps 729 mmHg 96%
    07:00 -14°C° 0 mm 2 mps 729 mmHg 97%
    08:00 -13°C° 0 mm 2 mps 729 mmHg 96%
    09:00 -12°C° 0 mm 2 mps 729 mmHg 96%
    10:00 -12°C° 0 mm 2 mps 729 mmHg 96%
    11:00 -10°C° 0 mm 2 mps 730 mmHg 96%
    12:00 -9°C° 0 mm 2 mps 730 mmHg 95%
    13:00 -10°C° 0 mm 3 mps 730 mmHg 95%
    14:00 -10°C° 0 mm 3 mps 730 mmHg 95%
    15:00 -9°C° 0 mm 2 mps 730 mmHg 95%
    16:00 -9°C° 0 mm 2 mps 730 mmHg 96%
    17:00 -9°C° 0 mm 2 mps 731 mmHg 96%
    18:00 -9°C° 0 mm 2 mps 731 mmHg 96%
    19:00 -10°C° 0 mm 2 mps 731 mmHg 97%
    20:00 -9°C° 0 mm 1 mps 731 mmHg 97%
    21:00 -9°C° 0 mm 1 mps 731 mmHg 97%
    22:00 -10°C° 0 mm 1 mps 732 mmHg 97%
    23:00 -10°C° 0 mm 0 mps 732 mmHg 97%
    Show more